Content
SEND FEEDBACK

Daily
Averages
Monthly
Summary
United States of America

ACHANG BAY, GUAM


Home > North America > United States > Guam
Elevation: 10 meters     Latitude: 13 16N     Longitude: 144 45E

WEATHER
 
SELECT A DAY
Number of Records: 342,273;   Date Range: 1/1/95 - 8/30/14
 
SHARE

PRINT THIS DATA

[ ← Previous Day ]
WEATHER ALMANAC - 24 MARCH, 2014
[ Next Day → ]
[ °F ]   °C
Weather ElementAverageHighLow
Temperature26.6 °C29 °C (11:48 am)24.8 °C (3:58 am)
Dewpoint22.6 °C24 °C (11:33 am)21 °C (3:18 am)
Humidity78.6 %89 % (2:13 am)70 % (11:53 am)
Barometer1012.9 hPa1014.6 hPa (8:08 am)1010.2 hPa (3:58 pm)
Wind Speed25.7 km/h33.3 km/h (10:38 am)
Wind Gust38.9 km/h (11:48 am)
Weather ElementAverage
Visibility16.1 km
Wind DirectionENE (64.5 °)

Weather ElementTotal
Precipitation---
Cooling Degree Days8.6 (Base 18.3)
Growing Degree Days16.9 (Base 10)
Averaged from 65 records on 24 March, 2014
WEATHER CONDITIONS BREAKOUT
WIND DIRECTION BREAKOUT
WEATHER BY HOUR - 24 MARCH, 2014
[ °F ]   °C
Local TimeTemperatureDewpointHumidityBarometerVisibilityWind DirectionWind SpeedGust SpeedPrecipitationEventsConditions
12:58 AM25 °C22 °C83 %1013.2 hPa16.1 kmENE (70°)25.9 km/hMostly Cloudy
1:03 AM25 °C22 °C83 %1013.9 hPa16.1 kmENE (70°)24.1 km/hScattered Clouds
1:58 AM25 °C22.1 °C84 %1012.9 hPa16.1 kmENE (60°)24.1 km/hScattered Clouds
2:08 AM25 °C22 °C83 %1013.2 hPa16.1 kmENE (60°)20.4 km/hMostly Cloudy
2:13 AM25 °C23 °C89 %1013.2 hPa16.1 kmENE (60°)22.2 km/hScattered Clouds
2:28 AM25 °C22 °C83 %1013.2 hPa16.1 kmENE (60°)24.1 km/hMostly Cloudy
2:38 AM25 °C22 °C83 %1013.2 hPa16.1 kmENE (60°)18.5 km/hScattered Clouds
2:58 AM25.2 °C22.3 °C84 %1011.9 hPa16.1 kmENE (60°)27.8 km/hScattered Clouds
3:09 AM25 °C23 °C89 %1012.9 hPa16.1 kmENE (60°)29.6 km/hRainLight Rain
3:18 AM25 °C21 °C78 %1012.9 hPa16.1 kmENE (70°)22.2 km/h37 km/hPartly Cloudy
3:58 AM24.8 °C22 °C84 %1011.5 hPa16.1 kmENE (60°)24.1 km/h0 mmPartly Cloudy
4:13 AM25 °C22 °C83 %1012.5 hPa16.1 kmENE (70°)22.2 km/hMostly Cloudy
4:23 AM25 °C22 °C83 %1012.9 hPa16.1 kmENE (60°)20.4 km/hScattered Clouds
4:58 AM25 °C22.3 °C85 %1011.9 hPa16.1 kmENE (60°)22.2 km/hScattered Clouds
5:18 AM25 °C22 °C83 %1013.2 hPa16.1 kmENE (60°)25.9 km/hMostly Cloudy
5:23 AM25 °C22 °C83 %1013.2 hPa16.1 kmENE (60°)24.1 km/hScattered Clouds
5:58 AM25.2 °C22.1 °C83 %1012.9 hPa16.1 kmENE (60°)20.4 km/hMostly Cloudy
6:03 AM25 °C22 °C83 %1013.5 hPa16.1 kmENE (60°)22.2 km/hScattered Clouds
6:08 AM25 °C22 °C83 %1013.5 hPa16.1 kmENE (70°)25.9 km/hMostly Cloudy
6:13 AM25 °C22 °C83 %1013.5 hPa16.1 kmENE (70°)24.1 km/hScattered Clouds
6:58 AM25.3 °C22.3 °C83 %1012.9 hPa16.1 kmENE (60°)22.2 km/hScattered Clouds
7:08 AM26 °C22 °C78 %1013.9 hPa16.1 kmENE (60°)24.1 km/hMostly Cloudy
7:18 AM26 °C22 °C78 %1014.2 hPa16.1 kmENE (60°)24.1 km/hScattered Clouds
7:48 AM26 °C23 °C83 %1014.2 hPa16.1 kmNE (50°)25.9 km/hMostly Cloudy
7:53 AM26 °C23 °C83 %1014.2 hPa16.1 kmENE (60°)22.2 km/hScattered Clouds
7:58 AM26.3 °C23 °C82 %1013.2 hPa16.1 kmENE (60°)24.1 km/hMostly Cloudy
8:08 AM27 °C23 °C79 %1014.6 hPa16.1 kmENE (60°)24.1 km/hMostly Cloudy
8:13 AM27 °C23 °C79 %1014.6 hPa16.1 kmENE (60°)25.9 km/hMostly Cloudy
8:18 AM27 °C23 °C79 %1014.6 hPa16.1 kmENE (60°)25.9 km/hScattered Clouds
8:23 AM27 °C23 °C79 %1014.6 hPa16.1 kmENE (60°)27.8 km/hMostly Cloudy
8:28 AM27 °C23 °C79 %1014.6 hPa16.1 kmENE (60°)27.8 km/hMostly Cloudy
8:53 AM27 °C23 °C79 %1014.6 hPa16.1 kmENE (60°)25.9 km/hScattered Clouds
8:58 AM27.3 °C22.9 °C77 %1013.9 hPa16.1 kmENE (60°)27.8 km/hScattered Clouds
9:48 AM28 °C23 °C74 %1014.2 hPa16.1 kmENE (60°)25.9 km/hMostly Cloudy
9:53 AM28 °C23 °C74 %1014.2 hPa16.1 kmENE (60°)29.6 km/hMostly Cloudy
9:58 AM27.5 °C22.9 °C76 %1013.2 hPa16.1 kmENE (70°)27.8 km/hMostly Cloudy
10:13 AM28 °C23 °C74 %1014.2 hPa16.1 kmENE (60°)29.6 km/hMostly Cloudy
10:18 AM28 °C23 °C74 %1014.2 hPa16.1 kmENE (70°)27.8 km/hScattered Clouds
10:23 AM28 °C23 °C74 %1014.2 hPa16.1 kmENE (70°)27.8 km/hMostly Cloudy
10:28 AM28 °C23 °C74 %1014.2 hPa16.1 kmENE (60°)29.6 km/hScattered Clouds
10:38 AM28 °C23 °C74 %1013.9 hPa16.1 kmENE (70°)33.3 km/hMostly Cloudy
10:48 AM28 °C23 °C74 %1013.9 hPa16.1 kmENE (70°)29.6 km/hMostly Cloudy
10:53 AM28 °C23 °C74 %1013.9 hPa16.1 kmENE (70°)29.6 km/hScattered Clouds
10:58 AM28.4 °C23.3 °C74 %1012.9 hPa16.1 kmENE (60°)33.3 km/hScattered Clouds
11:33 AM28 °C24 °C79 %1013.2 hPa16.1 kmENE (70°)29.6 km/h37 km/hMostly Cloudy
11:48 AM29 °C24 °C74 %1013.2 hPa16.1 kmENE (70°)29.6 km/h38.9 km/hMostly Cloudy
11:53 AM29 °C23 °C70 %1013.2 hPa16.1 kmENE (70°)29.6 km/h38.9 km/hMostly Cloudy
11:58 AM28.9 °C23.4 °C72 %1011.9 hPa16.1 kmEast (80°)29.6 km/h38.9 km/hMostly Cloudy
12:23 PM29 °C23 °C70 %1012.9 hPa16.1 kmENE (70°)29.6 km/h38.9 km/hScattered Clouds
12:58 PM28.5 °C23.2 °C73 %1011.5 hPa16.1 kmEast (90°)29.6 km/hScattered Clouds
1:58 PM28.5 °C23.4 °C74 %1010.5 hPa16.1 kmENE (70°)25.9 km/h35.2 km/hPartly Cloudy
2:58 PM28.8 °C22.8 °C70 %1010.5 hPa16.1 kmENE (70°)25.9 km/hPartly Cloudy
3:58 PM28.2 °C22.9 °C73 %1010.2 hPa16.1 kmENE (70°)29.6 km/hPartly Cloudy
4:15 PM28 °C23 °C74 %1011.5 hPa16.1 kmENE (70°)25.9 km/hRainLight Rain
4:20 PM28 °C23 °C74 %1011.5 hPa16.1 kmENE (60°)31.5 km/hRainLight Rain
4:24 PM27 °C23 °C79 %1011.5 hPa16.1 kmENE (60°)24.1 km/hMostly Cloudy
4:29 PM27 °C23 °C79 %1011.5 hPa16.1 kmENE (60°)25.9 km/hScattered Clouds
4:58 PM27.4 °C22.4 °C74 %1010.5 hPa16.1 kmENE (70°)24.1 km/h0 mmPartly Cloudy
5:58 PM26.6 °C21.9 °C75 %1011.2 hPa16.1 kmENE (70°)24.1 km/hScattered Clouds
6:58 PM26 °C22 °C78 %1011.9 hPa16.1 kmENE (70°)20.4 km/hScattered Clouds
7:58 PM25.5 °C21.8 °C80 %1012.2 hPa16.1 kmENE (60°)24.1 km/hPartly Cloudy
8:58 PM25.6 °C21.5 °C78 %1012.9 hPa16.1 kmENE (70°)25.9 km/hPartly Cloudy
9:58 PM25.5 °C21.2 °C77 %1013.2 hPa16.1 kmENE (70°)25.9 km/hPartly Cloudy
10:58 PM25.4 °C21.3 °C78 %1013.2 hPa16.1 kmENE (60°)22.2 km/hPartly Cloudy
11:58 PM25.2 °C21.8 °C81 %1012.9 hPa16.1 kmENE (60°)22.2 km/hScattered Clouds
Hourly data recorded from PGUA, located 0 kilometers away from Achang Bay, Guam







STORIES FROM OUR PARTNERS